Location: Briis
(48.6240°N, 2.1211°E)
Time: 11:36:26
(UTC+00:00)

Meteor 1-31 Rocket - Pass Details

Date: 25 September 2020
Orbit: 522 x 545 km, 97.6° (Epoch: 30 October)

Event Time Altitude Azimuth Distance (km) Brightness Sun altitude
Rises 04:39:49 0° 15° (NNE) 2,675 6.7 -11.2°
Reaches altitude 10° 04:41:56 10° 17° (NNE) 1,784 5.8 -10.8°
Maximum altitude 04:45:47 72° 102° (ESE) 562 3.0 -10.2°
Drops below altitude 10° 04:49:38 10° 188° (S) 1,782 5.3 -9.6°
Sets 04:51:44 0° 190° (S) 2,672 6.1 -9.2°
